Location: *
(6.1039°S, 35.9108°W)
Time: 11:06:15
(UTC+00:00)

Daily predictions for brighter satellites

Satellite Brightness Start Highest point End
(mag) Time Altitude Azimuth Time Altitude Azimuth Time Altitude Azimuth
CZ-4 R/B 4.4 21:05:23 10° SSE 21:09:32 70° ENE 21:13:38 10° N
Cosmos 2151 4.0 21:13:16 10° SSE 21:16:45 25° E 21:20:13 10° NE
SEDSat Delta rocket 3.9 21:12:07 10° SW 21:16:46 48° SSE 21:21:57 11° ENE
YAOGAN 1 2.7 21:13:51 10° SSE 21:18:05 54° E 21:22:17 10° N
Cosmos 2221 3.6 21:16:01 10° NNE 21:19:32 24° E 21:23:04 10° SE
CZ-3C R/B 4.1 21:04:28 10° WNW 21:20:19 17° NNW 21:25:38 10° NNE
Cosmos 1408 4.0 21:17:54 10° SE 21:20:31 19° E 21:23:02 10° NE
Cosmos 1939 Rocket 2.9 21:21:42 10° SSE 21:25:27 49° E 21:29:11 10° N
Cosmos 1356 Rocket 3.5 21:21:45 10° N 21:25:50 57° E 21:30:02 10° SSE
CSL-04 Rocket 3.7 21:21:06 10° SSE 21:26:25 58° ENE 21:31:46 10° N
CZ-2D R/B 3.3 21:24:52 10° SSE 21:28:36 55° E 21:32:19 10° N
Cosmos 1844 4.4 21:25:01 10° S 21:30:18 36° ESE 21:35:05 12° NE
Intelsat 5-1 Rocket 4.2 21:30:57 10° WSW 21:37:14 77° NNW 21:52:52 17° ENE
Cosmos 2058 4.0 21:33:20 10° SSW 21:37:16 47° W 21:41:12 10° NNW
CZ-2C R/B 3.6 21:34:04 10° NNE 21:38:33 73° ESE 21:43:10 10° S
ARIANE 44L R/B 2.9 21:36:36 10° WNW 21:39:29 69° NNE 21:48:21 13° E
SAR-Lupe-2 4.5 21:39:18 21° ENE 21:40:51 29° ESE 21:44:00 10° SSE
Cosmos 1766 Rocket 3.7 21:39:33 10° S 21:43:55 51° E 21:48:02 11° NNE
HJ-1C 3.8 21:41:48 10° SSE 21:45:00 40° E 21:47:54 12° N
Cosmos 1452 Rocket 3.5 21:42:12 10° SSW 21:47:30 85° WNW 21:52:45 10° N
ASTRO E2 3.1 21:48:44 10° WNW 21:52:38 62° SSW 21:56:14 12° SE
Cosmos 1869 3.7 21:54:25 32° ENE 21:55:16 37° E 21:58:53 10° SSE
Abrixas rocket 1.8 21:52:32 10° SW 21:55:30 76° SE 21:55:59 56° ENE
Cosmos 1408 Rocket 3.9 21:53:45 10° SSE 21:58:00 43° E 21:59:23 33° NE
Cosmos 2251 Rocket 3.6 21:54:58 10° NNW 22:00:20 85° WSW 22:05:43 10° S
USA 215 3.9 21:57:03 24° ENE 22:00:20 40° SE 22:06:21 10° SSW
CZ-4 R/B 4.3 22:02:35 10° SSW 22:05:19 18° WSW 22:08:05 10° WNW
Cosmos 2278 Rocket 3.9 22:04:30 10° SSE 22:07:03 16° ESE 22:07:03 16° ESE
Cosmos 332 Rocket 4.0 22:06:30 10° S 22:11:11 45° ESE 22:11:40 44° E
Cosmos 371 Rocket 3.2 22:06:49 10° S 22:11:40 66° ESE 22:13:09 43° NE
ARGOS 4.4 22:07:22 10° SE 22:09:49 22° ESE 22:09:49 22° ESE
ATLAS 3B R/B 4.3 22:06:55 10° SW 22:12:53 31° WNW 22:18:42 10° N
Cosmos 1605 Rocket 4.4 22:07:50 10° SSW 22:13:57 63° W 22:20:08 10° N
GPS 2-12 Rocket1 3.9 22:11:17 10° NW 22:15:15 35° N 22:15:15 35° N
ATLAS 5 CENTAUR R/B 4.1 22:12:55 10° SW 22:18:42 35° SSE 22:40:16 10° ESE
STARLINK-60 4.0 22:16:29 10° SSW 22:18:52 41° S 22:18:52 41° S
Cosmos 1459 Rocket 4.4 22:14:09 10° SSE 22:20:02 40° E 22:20:14 40° E
SL-16 R/B 3.0 22:18:19 10° NNW 22:23:46 52° WSW 22:29:15 10° S
Ariane H10+ 2.9 22:20:31 10° WNW 22:23:53 34° N 22:23:59 34° N
Ariane Rocket 3.1 22:21:27 10° S 22:26:30 75° WSW 22:31:32 10° NNW
Cosmos 1844 Rocket 4.0 22:22:47 10° SW 22:27:53 37° WNW 22:32:32 12° N
CZ-2C R/B 2.6 22:29:12 49° NNE 22:30:47 83° ESE 22:36:19 10° S
Cosmos 1331 Rocket 3.8 22:26:29 10° S 22:31:40 71° ESE 22:31:44 71° E
Yuri Rocket 3.1 22:27:50 10° WSW 22:32:11 87° NNW 22:32:14 87° N
Cosmos 2100 Rocket 3.8 22:37:08 10° S 22:43:24 80° E 22:44:04 71° NE
Delta 7925 Rocket 3.8 22:36:20 10° WNW 22:43:47 85° SSW 22:44:44 66° SE
Cosmos 1825 4.2 22:40:37 10° SW 22:43:47 26° W 22:44:38 23° WNW
Meteor 2-3 Rocket 3.6 22:39:27 10° S 22:45:11 88° W 22:45:26 82° NNW
ATLAS CENTAUR Rocket 4.1 22:44:13 10° NW 22:45:32 13° NNW 22:45:32 13° NNW
Cosmos 1802 Rocket 4.3 22:41:56 10° S 22:46:42 50° SE 22:46:42 50° SE
Ariane H10-3 4.3 22:32:55 10° W 23:01:49 44° NNW 23:02:45 42° N
BLOCK DM-SL R/B 4.2 22:59:04 10° W 23:04:31 43° NW 23:04:31 43° NW
Cosmos 2173 Rocket 4.2 23:00:01 10° SSW 23:06:00 67° W 23:06:00 67° W
CZ-3A R/B 2.8 22:48:16 10° WSW 23:08:31 84° S 23:08:31 84° S
H-2A R/B 3.3 23:07:27 10° S 23:11:10 36° SW 23:11:10 36° SW
Palapa 6 Rocket 4.4 23:05:08 10° WNW 23:12:13 77° WNW 23:12:13 77° WNW
Cosmos 2278 Rocket 4.4 23:46:56 10° SW 23:48:56 20° SW 23:48:56 20° SW
